{"data":{"norad_id":62626,"intl_designator":"2025-009T","name":"MBZ-SAT","alt_names":[],"object_type":"PAYLOAD","status":"ACTIVE","operator":null,"country":"UAE","launch_date":"2025-01-14","launch_site_code":"AFWTR","launch_vehicle":null,"mission":null,"orbit_class":"UNKNOWN","rcs_meters":null,"size_class":null,"mass_kg":null,"dimensions":null,"purposes":[],"wikipedia_slug":null,"has_3d_model":false,"image_url":null,"decayed_at":null,"tle_current":{"epoch":"2026-05-25T05:30:56.199168Z","epoch_age_seconds":58486,"freshness":"FRESH","line1":"1 62626U 25009T   26145.22981712  .00000175  00000+0  11874-4 0  9995","line2":"2 62626  97.3971 224.0225 0006598  76.4801 283.7168 15.17969709 75204","mean_motion":15.17969709,"eccentricity":0.0006598,"inclination_deg":97.3971,"raan_deg":224.0225,"arg_perigee_deg":76.4801,"mean_anomaly_deg":283.7168,"bstar":1.1874e-5,"rev_number":7520,"period_min":94.863553038132,"perigee_km":507.43138176932,"apogee_km":516.52357683621,"semimajor_km":6890.1144793028,"source":"CELESTRAK","updated_at":"2026-05-25T13:38:03.131057Z"}}}